Torna al catalogo

STARLINK-37998

AttivoComunicazioniSSO
NORAD 69679·PAYLOAD·🇺🇸 United States

Lanciato Jun 25, 2026 da Vandenberg Space Force Base

Loading…

Prossimi Passaggi (prossime 24 ore)

TLE

AggiornatoSource: CelesTrak SupGP

Epoca: Sep 15, 2026, 03:16 UTC

1 69679C 26145C   26258.13659722 -.00032338  00000+0 -10037-2 0  2584
2 69679  97.2848 104.8515 0002094  95.9328 113.9927 15.33460199    16

Traccia STARLINK-37998 in tempo reale con AllMySat

Download on the App Store